Wolf Point, MT

7:48 PM MST on December 10, 2016 (GMT -0700)
Clayton

Weather History for KOLF - December, 2013

Change the Weather History Date:

Thursday, December 26, 2013

  Actual Average Record
Temperature  
Mean Temperature 27 °F -  
Max Temperature 37 °F 24 °F 41 °F (2011)
Min Temperature 17 °F 1 °F -15 °F (2012)
Degree Days  
Heating Degree Days 38    
Cooling Degree Days 0    
Moisture  
Dew Point 20 °F    
Average Humidity 79    
Maximum Humidity 89    
Minimum Humidity 62    
Precipitation  
Precipitation 0.00 in 0.01 in 0.08 in (2003)
Month to date precipitation 0.10 0.24  
Year to date precipitation 13.34 12.12  
Sea Level Pressure  
Sea Level Pressure 30.06 in    
Wind  
Wind Speed 7 mph (WSW)    
Max Wind Speed 13 mph    
Max Gust Speed -    
Visibility 10 miles    
Events      
T = Trace of Precipitation, MM = Missing Value Source: NWS Daily Summary

Daily Weather History Graph

Daily Weather History Graph

Search for Another Location

Airport or City:

Trip Planner

Search our weather history database for the weather conditions in past years. The results will help you decide how hot, cold, wet, or windy it might be!

Date:

Astronomy

Dec. 26, 2013 Rise Set
Actual Time 7:51 AM MST 4:14 PM MST
Civil Twilight 7:15 AM MST 4:50 PM MST
Nautical Twilight 6:35 AM MST 5:30 PM MST
Astronomical Twilight 5:57 AM MST 6:08 PM MST
Moon 1:02 AM MST (12/26) 12:09 PM MST (12/26)
Length of Visible Light 9h 35m
Length of Day
8h 22m
Last Quarter, 38% of the Moon is Illuminated
Dec 26
Last Quarter
Jan 1
New
Jan 7
First Quarter
Jan 15
Full
Jan 23
Last Quarter

Hourly Weather History & Observations

Time (MST) Temp. Windchill Dew Point Humidity Pressure Visibility Wind Dir Wind Speed Gust Speed Precip Events Conditions
12:53 AM 19.9 °F 12.1 °F 17.1 °F 89% 30.03 in 10.0 mi WSW 5.8 mph - N/A   Overcast
1:53 AM 23.0 °F 11.1 °F 17.1 °F 78% 30.05 in 10.0 mi West 12.7 mph - N/A   Clear
2:53 AM 23.0 °F 12.4 °F 17.1 °F 78% 30.08 in 10.0 mi WSW 10.4 mph - N/A   Clear
3:53 AM 21.9 °F 11.0 °F 16.0 °F 78% 30.10 in 10.0 mi WSW 10.4 mph - N/A   Clear
4:53 AM 24.1 °F 15.2 °F 18.0 °F 77% 30.12 in 10.0 mi SW 8.1 mph - N/A   Clear
5:53 AM 23.0 °F 11.7 °F 18.0 °F 81% 30.13 in 10.0 mi West 11.5 mph - N/A   Clear
6:53 AM 23.0 °F 12.4 °F 18.0 °F 81% 30.14 in 10.0 mi WSW 10.4 mph - N/A   Clear
7:53 AM 21.0 °F 12.4 °F 17.1 °F 85% 30.16 in 10.0 mi West 6.9 mph - N/A   Clear
8:53 AM 21.0 °F 9.9 °F 17.1 °F 85% 30.16 in 10.0 mi West 10.4 mph - N/A   Clear
9:53 AM 26.1 °F 17.6 °F 19.9 °F 78% 30.17 in 10.0 mi WSW 8.1 mph - N/A   Clear
10:53 AM 30.0 °F 25.2 °F 21.9 °F 72% 30.14 in 10.0 mi SW 4.6 mph - N/A   Clear
11:53 AM 33.1 °F 27.7 °F 23.0 °F 66% 30.12 in 10.0 mi West 5.8 mph - N/A   Clear
12:53 PM 35.1 °F 30.1 °F 24.1 °F 64% 30.09 in 10.0 mi WSW 5.8 mph - N/A   Clear
1:53 PM 37.0 °F 32.4 °F 25.0 °F 62% 30.06 in 10.0 mi WSW 5.8 mph - N/A   Clear
2:53 PM 36.0 °F 32.1 °F 25.0 °F 64% 30.04 in 10.0 mi WSW 4.6 mph - N/A   Clear
3:53 PM 33.1 °F 28.7 °F 25.0 °F 72% 30.04 in 10.0 mi SW 4.6 mph - N/A   Clear
4:53 PM 27.0 °F - 21.9 °F 81% 30.03 in 10.0 mi Calm Calm - N/A   Clear
5:53 PM 21.9 °F - 19.0 °F 89% 30.01 in 10.0 mi Calm Calm - N/A   Clear
6:53 PM 19.9 °F - 17.1 °F 89% 30.00 in 10.0 mi Calm Calm - N/A   Overcast
7:53 PM 25.0 °F - 21.9 °F 88% 29.98 in 10.0 mi Calm Calm - N/A   Overcast
8:53 PM 25.0 °F 20.7 °F 21.0 °F 85% 29.96 in 10.0 mi WNW 3.5 mph - N/A   Partly Cloudy
9:53 PM 26.1 °F 16.2 °F 21.9 °F 84% 29.94 in 10.0 mi West 10.4 mph - N/A   Clear
10:53 PM 28.0 °F 20.0 °F 24.1 °F 85% 29.94 in 10.0 mi WSW 8.1 mph - N/A   Clear
11:53 PM 28.9 °F 19.8 °F 24.1 °F 82% 29.95 in 10.0 mi WSW 10.4 mph - N/A   Clear